Vorticity
nan nan nan nan nan nan nan nan nan nan nan nan nan nan nan nan nan nan nan nan nan nan nan nan nan nan nan nan nan nan nan nan nan nan nan nan nan nan nan nan nan nan nan nan nan nan nan nan nan nan nan nan nan nan nan nan nan nan nan nan nan nan nan nan nan nan nan nan nan
nan 10 10 10 9 9 9 9 9 9 9 8 8 8 8 9 8 8 8 9 9 9 9 8 6 5 5 7 10 10 10 9 8 9 9 10 10 10 11 11 10 11 11 11 11 11 8 8 11 11 10 8 7 8 9 7 6 5 5 7 11 11 11 11 10 10 12 14 nan
nan 8 9 10 10 10 10 8 8 9 10 9 9 9 9 9 8 8 8 8 8 9 9 8 6 6 6 8 10 9 9 8 8 9 10 10 9 9 10 10 9 10 11 10 9 8 6 7 10 10 9 6 6 7 8 8 8 8 9 13 14 12 11 10 10 12 15 12 nan
nan 7 7 8 10 10 10 9 8 9 10 9 8 9 9 9 9 8 8 8 9 9 9 7 7 7 7 7 7 8 8 8 9 10 11 10 9 9 9 9 10 10 9 8 7 7 6 8 11 10 8 7 8 9 8 7 9 13 14 15 13 11 10 9 10 11 11 8 nan
nan 7 7 7 8 8 9 9 9 10 10 9 8 8 8 9 9 8 8 9 9 8 7 8 8 7 6 5 7 8 9 10 11 11 9 9 9 9 9 9 10 10 10 9 8 8 8 10 12 10 9 11 12 10 7 8 12 14 14 12 9 9 8 8 8 8 8 6 nan
nan 8 8 8 8 8 8 8 9 9 10 8 7 8 9 8 8 7 8 9 8 7 8 9 8 7 5 6 8 10 10 10 10 9 8 9 9 8 8 9 10 11 10 10 10 10 11 13 14 11 11 11 10 8 8 11 13 12 11 8 7 7 6 6 8 7 5 2 nan
nan 8 8 8 8 9 9 9 8 9 9 7 6 7 7 7 6 7 9 10 9 9 9 9 7 6 6 7 9 9 10 9 8 8 9 10 8 7 8 9 10 11 11 11 12 12 12 14 13 11 10 10 8 7 7 9 8 7 6 6 7 7 5 8 9 6 2 -1 nan
nan 6 6 7 8 9 9 9 8 8 9 8 6 6 6 6 6 8 10 11 9 9 9 7 5 6 7 8 8 8 9 9 9 9 9 8 7 8 9 10 10 11 12 12 11 10 10 12 10 9 9 9 7 4 3 4 6 6 6 9 9 7 6 7 5 3 -0 1 nan
nan 5 5 6 8 8 9 8 8 7 8 8 7 8 7 7 7 8 10 10 9 8 8 7 5 7 8 8 9 9 9 9 8 9 8 8 8 9 9 10 9 10 11 10 8 8 10 12 9 8 8 7 5 3 2 4 6 8 10 12 8 5 4 3 1 1 3 5 nan
nan 6 6 6 7 8 9 9 8 7 7 7 8 9 10 8 7 8 9 8 7 8 8 8 7 8 8 9 9 9 9 9 8 7 8 8 8 9 10 10 8 9 9 9 9 10 13 12 8 6 7 6 4 5 5 6 6 8 11 9 3 1 3 3 3 5 8 8 nan
nan 6 6 7 7 8 9 9 8 8 7 8 9 10 11 10 8 8 8 7 7 7 9 9 8 9 9 10 9 9 9 8 7 7 7 7 8 9 10 9 8 8 9 10 12 13 13 9 6 5 7 7 8 9 7 6 7 7 8 5 2 3 5 6 8 10 11 8 nan
nan 6 6 7 7 7 8 9 8 8 8 8 9 10 11 10 9 8 7 7 8 9 10 9 9 9 10 10 8 8 8 7 7 7 7 8 8 9 9 9 9 9 10 12 13 12 10 6 6 6 7 10 11 8 6 6 8 8 7 5 6 7 7 7 10 11 9 7 nan
nan 6 6 6 7 7 7 8 9 8 8 8 9 10 10 10 9 8 7 7 10 10 9 8 9 10 10 9 8 8 7 7 7 8 8 9 9 9 9 9 9 10 11 12 11 10 8 6 7 8 9 10 9 6 4 6 8 8 8 8 8 8 8 8 10 9 7 8 nan
nan 6 6 6 7 7 7 8 9 8 8 8 9 9 10 10 9 8 7 8 9 9 9 9 10 9 8 8 8 7 7 7 7 8 8 9 9 9 9 9 9 10 11 10 8 8 8 8 8 9 8 8 6 5 6 7 8 8 8 8 9 9 9 9 9 10 9 10 nan
nan 5 6 6 6 6 6 8 9 8 8 9 9 10 10 10 9 9 8 7 8 9 9 9 9 8 7 8 8 8 8 8 8 9 9 10 9 9 9 9 9 10 10 8 7 7 8 8 9 9 7 6 6 7 7 8 8 8 8 8 9 9 9 9 10 11 11 10 nan
nan 6 6 6 6 5 6 7 8 7 8 8 9 10 10 10 9 9 8 8 9 8 7 7 8 8 8 8 8 9 10 9 9 10 10 10 9 9 9 9 10 9 9 8 8 8 8 9 9 8 7 7 7 8 8 8 9 9 8 9 9 9 9 9 10 10 10 10 nan
nan 6 6 6 5 5 5 6 7 7 7 8 9 10 10 10 9 9 9 9 8 6 5 6 8 8 8 7 8 9 10 10 10 10 10 9 9 9 9 10 10 9 8 8 8 9 10 10 9 8 7 7 8 8 8 9 10 9 9 9 9 9 9 9 9 10 10 10 nan
nan 6 6 6 6 5 5 6 6 6 7 8 9 10 10 9 9 9 8 8 7 6 6 7 8 8 7 7 8 9 9 8 9 9 9 9 9 9 9 10 9 9 8 8 9 10 10 10 8 7 7 7 7 8 8 9 10 9 9 9 9 9 9 9 9 10 10 9 nan
nan 6 6 6 6 6 6 6 6 7 8 9 9 9 9 9 9 9 8 8 7 7 7 7 8 8 7 7 8 9 8 8 8 9 9 10 9 9 9 10 9 8 8 9 11 12 11 8 6 5 5 6 7 7 8 10 10 10 10 11 11 10 9 9 10 10 9 8 nan
nan 6 6 6 6 7 7 7 7 7 8 8 8 8 8 9 9 9 8 8 7 7 7 8 8 7 7 8 8 9 10 10 8 9 10 11 10 9 9 9 9 9 10 11 13 12 10 7 4 4 4 6 7 9 10 12 11 10 12 12 11 10 9 10 9 9 9 9 nan
nan 6 6 6 7 7 7 7 7 8 8 8 8 8 8 9 9 9 9 8 8 7 7 7 7 7 8 8 9 10 11 10 9 10 11 11 11 10 9 9 9 10 11 13 14 11 9 6 4 5 5 7 8 10 11 12 10 10 12 11 9 8 9 10 10 10 10 10 nan
nan 6 7 7 7 7 7 7 7 7 8 8 8 9 9 9 9 9 9 8 8 7 7 7 8 8 8 9 9 10 10 9 9 10 11 11 11 10 10 9 8 9 12 16 16 12 8 5 4 5 7 8 8 9 10 10 10 10 10 9 8 9 10 11 11 10 10 11 nan
nan 7 7 8 8 8 7 7 7 7 7 8 8 9 10 10 10 10 9 8 7 6 7 8 8 9 9 9 9 9 9 9 9 10 10 10 10 10 10 9 9 11 16 20 18 15 12 8 6 7 8 8 8 10 11 11 11 10 9 9 10 11 12 12 11 11 11 11 nan
nan 6 6 7 8 8 7 7 7 7 7 7 8 9 10 11 10 10 9 8 7 6 7 7 7 8 9 10 9 9 9 9 10 10 10 10 10 10 11 10 10 13 19 21 17 16 15 12 10 9 9 9 10 11 11 10 10 9 9 10 11 12 12 11 10 10 10 11 nan
nan 6 5 5 6 7 7 7 7 7 7 7 9 10 10 11 11 10 9 8 7 6 7 6 8 10 11 10 10 10 10 11 11 11 10 10 10 10 11 10 11 15 19 18 12 10 12 13 12 10 9 9 10 10 10 9 9 9 10 10 11 12 12 11 11 11 11 12 nan
nan 7 6 6 6 6 6 7 7 7 7 8 9 9 10 11 11 10 8 7 7 7 7 9 11 12 11 10 9 10 11 12 11 10 10 10 9 10 10 10 12 17 21 17 8 4 5 7 9 10 9 8 9 10 10 9 8 9 10 11 12 12 11 10 10 10 12 12 nan
nan 7 6 6 6 6 6 7 7 7 8 8 9 10 10 11 10 9 8 7 7 8 10 12 12 12 11 10 9 9 10 11 11 10 10 10 9 9 9 9 12 21 27 17 6 3 3 4 6 8 9 9 9 9 9 8 8 10 13 14 13 11 10 10 10 11 11 10 nan
nan 6 6 6 7 7 6 6 6 7 8 9 10 10 11 10 9 8 7 7 8 10 12 13 13 12 11 9 8 9 10 11 12 12 11 9 8 8 8 8 12 23 29 16 3 2 3 4 5 7 10 11 11 10 10 10 12 13 14 14 12 11 11 12 12 11 10 10 nan
nan 7 7 7 7 7 7 6 6 8 9 10 11 10 10 10 9 8 7 8 9 11 12 12 11 9 7 6 7 9 11 13 14 12 11 9 8 7 6 7 12 22 26 14 1 2 4 4 5 5 7 11 12 11 11 11 11 11 12 12 9 8 9 10 9 9 9 10 nan
nan 8 8 7 7 7 7 6 7 9 10 10 10 9 9 9 8 8 9 10 11 11 10 8 7 6 5 6 8 10 11 13 13 12 11 9 7 7 6 7 13 21 21 10 1 3 4 4 4 5 5 8 12 11 10 8 8 9 11 8 5 5 7 9 9 10 11 10 nan
nan 8 8 8 8 7 7 7 8 9 9 8 7 7 8 8 9 10 10 11 11 10 8 7 6 7 7 9 9 10 10 12 12 12 11 9 8 7 6 5 17 26 22 7 1 3 4 4 4 4 4 8 12 11 8 7 8 9 9 5 4 6 10 12 11 10 9 9 nan
nan 8 8 8 8 8 8 8 9 9 8 6 6 6 7 9 10 11 11 11 10 9 8 8 9 10 11 10 9 9 10 11 11 11 10 9 7 8 8 5 23 31 23 3 1 4 4 4 4 4 4 8 12 10 9 9 11 10 8 6 7 9 12 12 9 7 8 11 nan
nan 8 8 8 8 8 8 9 9 8 6 5 5 7 8 10 10 11 11 11 11 10 9 9 10 11 12 11 10 10 10 11 11 10 9 8 8 8 9 10 23 30 19 1 1 3 3 3 3 3 4 10 15 13 12 12 13 11 9 8 8 9 9 10 10 8 9 12 nan
nan 9 9 8 8 8 9 9 8 6 5 5 7 8 9 9 10 10 11 11 10 10 9 9 11 12 12 11 10 10 10 10 9 9 9 9 9 9 9 12 22 27 16 1 1 2 2 2 2 3 6 13 17 14 11 12 12 9 7 7 8 9 9 10 10 11 11 13 nan
nan 10 10 9 9 8 8 7 6 6 6 7 8 9 9 9 10 11 11 11 10 9 8 9 10 11 11 10 9 9 9 9 9 9 9 9 9 8 8 11 19 25 13 2 1 2 2 2 3 4 9 16 17 13 11 12 12 9 7 8 9 9 9 11 12 12 12 12 nan
nan 11 11 10 9 8 7 6 6 6 7 9 9 9 9 10 11 11 12 12 10 9 8 9 10 10 10 10 9 9 8 8 10 10 10 9 8 8 7 11 15 18 7 5 1 1 2 2 3 5 11 16 15 12 12 13 12 9 9 10 10 9 11 12 13 12 12 11 nan
nan 13 12 12 9 8 6 6 7 8 8 9 9 9 10 10 12 12 13 13 11 10 9 10 10 10 11 10 9 8 7 8 10 11 10 9 8 7 7 10 9 12 10 12 3 1 1 2 3 6 11 14 12 11 12 13 11 9 9 10 11 10 13 14 13 12 11 11 nan
nan 14 13 11 8 7 7 7 8 9 9 9 9 9 10 11 13 13 14 12 10 10 9 9 10 10 11 11 9 8 7 9 11 11 11 9 9 8 8 7 6 10 19 19 5 1 0 2 3 6 10 11 11 12 13 12 9 8 9 11 10 10 12 14 13 11 9 10 nan
nan 14 12 10 8 8 8 8 9 9 10 10 9 9 10 11 12 13 13 11 10 9 9 9 9 10 11 11 10 8 8 9 11 12 11 9 10 10 9 6 7 11 23 20 7 1 -0 2 3 5 9 11 12 13 13 10 8 8 10 11 10 9 11 13 12 11 8 9 nan
nan 12 11 9 9 9 9 9 9 10 10 10 9 10 11 12 12 11 11 10 10 10 10 11 10 10 10 10 9 8 8 10 11 11 11 11 11 11 9 5 7 11 21 17 7 1 -0 1 2 4 9 12 12 13 12 10 8 9 10 10 10 10 10 11 12 11 9 10 nan
nan nan nan nan nan nan nan nan nan nan nan nan nan nan nan nan nan nan nan nan nan nan nan nan nan nan nan nan nan nan nan nan nan nan nan nan nan nan nan nan nan nan nan nan nan nan nan nan nan nan nan nan nan nan nan nan nan nan nan nan nan nan nan nan nan nan nan nan nan
CAPE
nan nan nan nan nan nan nan nan nan nan nan nan nan nan nan nan nan nan nan nan nan nan nan nan nan nan nan nan nan nan 0 5 10 2 2 5 18 34 34 46 52 45 45 36 33 33 35 44 44 44 47 38 49 67 67 94 117 80 80 73 80 89 89 94 102 102 101 104 101
nan nan nan nan nan nan nan nan nan nan nan nan nan nan nan nan nan nan nan nan nan nan nan nan nan nan nan nan nan nan 0 4 9 11 11 17 28 42 42 47 47 42 42 39 40 40 36 40 45 45 53 42 53 62 62 102 131 104 104 93 93 102 102 104 108 108 114 110 109
nan nan nan nan nan nan nan nan nan nan nan nan nan nan nan nan nan nan nan nan nan nan nan nan nan nan nan nan 0 0 1 5 8 14 14 27 30 42 42 49 40 27 27 41 49 49 45 46 46 46 44 58 76 88 88 90 84 98 98 115 118 119 119 129 141 141 153 136 132
nan nan nan nan nan nan nan nan nan nan nan nan nan nan nan nan nan nan nan nan nan nan nan nan nan nan nan nan 0 0 3 2 6 15 15 27 33 43 43 51 44 42 42 49 54 54 62 67 71 71 72 97 101 107 107 105 109 136 136 157 158 158 158 160 166 166 162 160 157
nan nan nan nan nan nan nan nan nan nan nan nan nan nan nan nan nan nan nan nan nan nan nan nan nan nan nan nan 0 0 4 5 nan 17 17 29 40 50 50 56 57 52 52 58 66 66 84 96 98 98 109 116 110 113 113 123 139 160 160 218 211 180 180 155 147 147 142 133 137
nan nan nan nan nan nan nan nan nan nan nan nan nan nan nan nan nan nan nan nan nan nan nan nan nan nan nan nan 0 0 2 11 10 18 18 31 42 53 53 58 67 67 67 70 86 86 110 124 137 137 147 150 149 135 135 128 134 143 143 178 172 149 149 127 131 131 135 122 118
nan nan nan nan nan nan nan nan nan nan nan nan nan nan nan nan nan nan nan nan nan nan nan nan nan nan nan 0 0 0 2 8 18 19 19 29 47 49 49 60 74 85 85 94 112 112 124 134 138 138 111 87 120 116 116 101 120 133 133 131 116 125 125 127 116 116 118 116 101
nan nan nan nan nan nan nan nan nan nan nan nan nan nan nan nan nan nan nan nan nan nan nan nan 1 0 0 0 0 0 2 7 13 23 23 41 48 48 48 63 79 79 79 100 103 103 104 108 95 95 93 94 81 83 83 88 95 99 99 95 80 89 89 94 97 97 89 95 98
nan nan nan nan nan nan nan nan nan nan nan nan nan nan nan nan nan nan nan nan nan nan nan nan 0 1 1 1 1 1 4 4 11 23 23 43 45 43 43 51 66 68 68 75 83 83 69 63 47 47 50 51 57 68 68 88 91 88 88 64 58 64 64 82 89 89 81 89 98
nan nan nan nan nan nan nan nan nan nan nan nan nan nan nan nan nan nan nan nan nan nan nan 0 1 1 1 4 3 3 5 7 9 15 15 23 30 36 36 34 35 45 45 52 51 51 48 39 46 46 56 63 48 66 66 93 97 96 96 58 53 58 58 67 78 78 82 80 110
nan nan nan nan nan nan nan nan nan nan nan nan nan nan nan nan 0 nan nan nan nan nan nan nan 1 1 1 3 3 3 6 11 10 8 8 10 19 31 31 30 24 29 29 38 42 42 39 39 41 41 51 48 55 71 71 82 91 88 88 77 76 78 78 76 81 81 79 76 104
nan nan nan nan nan nan nan nan nan nan nan nan nan nan nan nan nan nan nan nan nan nan nan nan 0 1 1 4 8 8 5 10 9 8 8 16 21 24 24 21 23 26 26 29 38 38 27 27 33 33 41 45 55 71 71 71 76 77 77 79 85 85 85 78 70 70 66 64 73
nan nan nan nan nan nan nan nan nan nan nan nan nan nan nan nan nan nan nan nan nan nan nan nan nan 0 0 3 9 9 11 10 13 19 19 22 15 13 13 12 18 19 19 27 37 37 19 25 30 30 29 40 54 67 67 67 67 73 73 74 70 66 66 65 51 51 43 42 49
nan nan nan nan nan nan nan nan nan nan nan nan nan nan nan nan nan nan nan nan nan nan nan nan nan 0 0 1 5 5 6 10 20 28 28 22 16 10 10 17 19 17 17 36 47 47 31 38 41 41 42 44 48 60 60 65 65 60 60 54 58 50 50 45 38 38 34 41 34
nan nan nan nan nan nan nan nan nan nan nan nan nan nan nan nan nan nan nan nan nan nan nan nan nan nan nan 0 1 1 4 17 22 18 18 12 14 16 16 19 19 22 22 42 49 49 41 36 40 40 45 45 40 43 43 52 51 44 44 41 43 36 36 35 28 28 31 42 29
nan nan nan nan nan nan nan nan nan nan nan nan nan nan nan nan nan nan nan nan nan nan nan nan nan nan nan 0 1 1 11 21 15 9 9 7 9 14 14 15 18 25 25 30 47 47 57 35 40 40 37 34 30 26 26 35 39 40 40 40 39 33 33 29 26 26 32 44 30
nan nan nan nan nan nan nan nan nan nan nan nan nan nan nan nan nan nan nan nan nan nan nan nan nan nan nan nan 4 4 9 8 5 3 3 2 4 7 7 10 17 21 21 23 32 32 30 55 63 63 47 45 37 29 29 29 40 43 43 41 44 39 39 26 25 25 29 31 17
nan nan nan nan nan nan nan nan nan nan nan nan nan nan nan nan nan nan nan nan 3 nan nan 0 0 2 2 3 7 7 1 0 nan 0 0 1 2 4 4 5 6 8 8 11 16 16 22 30 37 37 48 52 40 35 35 33 26 29 29 31 28 27 27 23 16 16 15 9 1
nan nan nan nan nan nan nan nan nan nan nan nan nan nan nan nan nan nan nan 0 nan 1 1 0 2 5 5 4 8 8 3 1 0 nan nan 1 1 3 3 3 4 7 7 11 19 19 28 36 46 46 33 20 16 21 21 22 18 20 20 24 21 19 19 19 19 19 13 5 2
nan nan nan nan nan nan nan nan nan nan nan nan nan nan nan nan nan nan nan nan 1 3 3 2 2 4 4 6 6 6 10 4 2 0 0 2 3 3 3 3 4 8 8 17 35 35 30 17 24 24 6 5 6 5 5 10 9 14 14 15 12 14 14 20 19 19 14 9 7
nan nan nan nan nan nan nan nan nan nan nan nan nan nan nan nan nan nan nan nan 1 1 1 2 3 6 6 10 7 7 7 6 8 2 2 3 4 5 5 6 7 10 10 20 36 36 26 17 5 5 1 1 2 6 6 2 4 4 4 6 7 9 9 15 19 19 15 12 11
nan nan nan nan nan nan nan nan nan nan nan nan nan nan nan nan nan 1 1 3 3 2 2 2 3 13 13 19 11 11 15 17 20 7 7 6 9 11 11 13 9 10 10 14 24 24 15 9 nan nan nan nan nan nan nan 1 0 0 0 1 5 3 3 10 17 17 13 11 11
nan nan nan nan nan nan nan nan 0 0 nan nan nan nan nan nan nan 2 2 3 2 3 3 4 15 20 20 23 15 15 13 21 21 11 11 7 5 5 5 11 7 8 8 11 8 8 nan nan nan nan nan nan nan nan nan 1 nan 0 0 0 0 2 2 4 9 9 10 9 13
nan nan nan nan nan nan nan 0 0 0 nan nan nan nan nan nan 0 1 1 3 5 11 11 21 27 26 26 21 12 12 13 16 14 11 11 5 3 2 2 2 6 10 10 21 nan nan nan nan nan nan nan nan nan nan nan 5 0 0 0 2 4 3 3 6 8 8 8 12 25
nan nan nan nan nan nan nan 0 0 0 nan nan nan nan nan nan 0 2 2 5 15 23 23 22 20 29 29 24 21 21 25 26 18 12 12 6 2 1 1 1 6 37 37 nan nan nan nan nan nan nan nan nan nan 2 2 3 2 3 3 7 11 11 11 17 13 13 14 13 14
nan nan nan nan nan nan 0 0 1 1 0 nan nan nan nan nan 0 5 5 12 19 21 21 18 19 20 20 17 21 21 28 34 25 9 9 2 0 3 3 1 26 54 54 nan nan nan nan nan nan nan nan nan nan 0 0 0 1 2 2 6 15 24 24 27 22 22 20 15 8
nan nan nan 0 1 1 1 1 2 2 1 0 nan nan nan nan 4 13 13 14 14 19 19 20 23 7 7 14 16 16 18 24 27 8 8 2 nan 2 2 1 25 26 26 nan nan nan nan nan nan nan nan nan nan nan nan nan nan 0 0 4 16 27 27 30 23 23 18 18 7
nan nan nan nan 0 0 1 3 3 3 2 0 0 0 0 2 9 9 9 8 11 20 20 23 18 5 5 7 11 11 13 20 23 15 15 3 2 1 1 0 13 nan nan nan nan nan nan nan nan nan nan nan nan nan nan nan nan nan nan 2 13 16 16 15 15 15 16 11 4
nan nan nan nan 0 0 5 8 7 7 5 3 2 3 3 10 9 4 4 4 14 21 21 16 8 5 5 4 13 13 18 18 18 13 13 4 3 0 0 nan 0 nan nan nan nan nan nan nan nan nan nan nan nan nan nan nan nan nan nan 1 8 9 9 10 13 13 11 7 3
nan nan nan nan 2 2 9 12 14 14 16 13 12 15 15 13 6 3 3 4 13 12 12 5 2 2 2 6 12 12 14 11 11 6 6 1 0 nan nan nan 0 nan nan nan nan nan nan nan nan nan nan nan nan nan nan nan nan nan nan 1 5 8 8 11 10 10 8 3 2
nan nan nan nan 4 4 11 15 24 24 32 32 28 25 25 11 6 6 6 11 13 4 4 2 0 3 3 6 6 6 2 2 4 4 4 2 nan nan nan nan 0 nan nan nan nan nan nan nan nan nan nan nan nan nan nan nan nan nan nan 2 4 7 7 11 9 9 6 2 1
nan nan nan nan 4 4 11 20 35 35 42 41 34 20 20 8 10 17 17 17 12 4 4 1 1 3 3 6 2 2 nan nan 0 1 1 0 nan nan nan nan 0 nan nan nan nan nan nan nan nan nan nan nan nan nan nan nan nan nan nan 1 5 5 5 11 7 7 2 1 1
nan nan nan nan 3 3 14 29 44 44 53 45 30 14 14 12 15 18 18 17 12 4 4 nan 0 3 3 7 2 2 nan nan nan nan nan nan nan nan nan nan 0 nan nan nan nan nan nan nan nan nan nan nan nan nan nan nan nan nan nan 0 1 2 2 3 2 2 2 1 1
nan nan nan 0 3 3 20 40 56 56 51 40 29 22 22 16 16 12 12 16 14 2 2 nan 0 7 7 9 3 3 0 nan nan nan nan nan nan nan nan nan 1 nan nan nan nan nan nan nan nan nan nan nan nan nan nan nan nan nan nan nan nan 1 1 5 4 4 4 3 3
0 1 1 3 9 9 31 54 50 50 39 27 26 30 30 23 15 17 17 14 6 2 2 0 4 13 13 16 8 8 2 3 3 1 1 nan nan nan nan nan 0 nan nan nan nan nan nan nan nan nan nan nan nan nan nan nan nan nan nan nan nan 3 3 5 4 4 4 4 2
3 16 16 21 33 33 57 49 27 27 24 29 32 30 30 23 20 18 18 3 2 2 2 3 10 19 19 18 20 20 6 8 6 8 8 0 nan nan nan nan nan nan nan nan nan nan nan nan nan nan nan nan nan nan nan nan nan nan nan nan nan 1 1 8 5 5 5 7 3
4 24 24 35 56 56 52 27 13 13 13 28 33 27 27 19 19 17 17 7 7 4 4 5 10 14 14 15 13 13 2 0 6 6 6 0 nan nan nan nan nan nan nan nan nan nan nan nan nan nan nan nan nan nan nan nan nan nan nan nan nan 0 0 6 7 7 6 7 9
7 27 27 50 49 49 24 22 25 25 19 26 23 22 22 17 14 13 13 2 4 2 2 4 5 6 6 9 7 7 1 nan 0 6 6 1 nan nan nan nan nan nan nan nan nan nan nan nan nan nan nan nan nan nan nan nan nan nan nan nan nan 0 0 0 nan nan 1 6 6
16 28 28 35 24 24 10 17 26 26 28 24 20 14 14 14 11 12 12 2 1 0 0 1 1 4 4 9 3 3 1 nan 0 8 8 6 1 nan nan nan nan nan nan nan nan nan nan nan nan nan nan nan nan nan nan nan nan nan nan nan nan nan nan nan nan nan nan 4 1
15 10 10 9 5 5 2 1 11 11 22 16 13 8 8 10 9 6 6 0 1 0 0 1 1 6 6 2 0 0 nan nan 1 4 4 8 3 nan nan nan nan nan nan nan nan nan nan nan nan nan nan nan nan nan nan nan nan nan nan nan nan nan nan nan nan nan nan 0 4
3 nan nan nan nan nan 0 0 1 1 9 11 6 6 6 7 3 3 3 1 1 2 2 4 6 7 7 2 0 0 0 nan nan 2 2 1 1 nan nan nan nan 1 1 nan nan nan nan nan nan nan nan nan nan nan nan nan nan nan nan nan nan nan nan nan nan nan nan nan 1